Kalamazoo, MI

12:59 PM EDT on March 30, 2017 (GMT -0400)
Kalamazoo-Battle Creek International

Weather History for KAZO - May, 2014

Change the Weather History Date:

Sunday, May 25, 2014

  Actual Average Record
Temperature  
Mean Temperature 67 °F 62 °F  
Max Temperature 83 °F 73 °F 91 °F (1977)
Min Temperature 51 °F 51 °F 35 °F (1949)
Degree Days  
Heating Degree Days 0 5  
Month to date heating degree days 220 198  
Since 1 July heating degree days 7048 6341  
Cooling Degree Days 2 2  
Month to date cooling degree days 25 24  
Year to date cooling degree days 25 28  
Growing Degree Days 16 (Base 50)    
Moisture  
Dew Point 49 °F    
Average Humidity 60    
Maximum Humidity 89    
Minimum Humidity 30    
Precipitation  
Precipitation 0.00 in 0.12 in 1.80 in (2011)
Month to date precipitation 1.94 3.16  
Year to date precipitation 7.74 11.73  
Sea Level Pressure  
Sea Level Pressure 30.13 in    
Wind  
Wind Speed 3 mph (SSW)    
Max Wind Speed 14 mph    
Max Gust Speed 16 mph    
Visibility 10 miles    
Events      
T = Trace of Precipitation, MM = Missing Value Source: NWS Daily Summary

Daily Weather History Graph

Daily Weather History Graph

Search for Another Location

Airport or City:

Trip Planner

Search our weather history database for the weather conditions in past years. The results will help you decide how hot, cold, wet, or windy it might be!

Date:

Astronomy

May. 25, 2014 Rise Set
Actual Time 6:12 AM EDT 9:06 PM EDT
Civil Twilight 5:39 AM EDT 9:39 PM EDT
Nautical Twilight 4:57 AM EDT 10:21 PM EDT
Astronomical Twilight 4:08 AM EDT 11:10 PM EDT
Moon 4:20 AM EDT (5/25) 6:02 PM EDT (5/25)
Length of Visible Light 16h 00m
Length of Day
14h 53m
Waning Crescent, 10% of the Moon is Illuminated
May 25
Waning Crescent
May 28
New
Jun 5
First Quarter
Jun 13
Full
Jun 19
Last Quarter

Hourly Weather History & Observations

Time (EDT) Temp. Dew Point Humidity Pressure Visibility Wind Dir Wind Speed Gust Speed Precip Events Conditions
12:53 AM 57.0 °F 48.9 °F 74% 30.16 in 10.0 mi Calm Calm - N/A   Clear
1:53 AM 53.6 °F 48.2 °F 82% 30.17 in 10.0 mi Calm Calm - N/A   Clear
2:53 AM 54.0 °F 48.0 °F 80% 30.16 in 10.0 mi Calm Calm - N/A   Clear
3:53 AM 54.0 °F 48.0 °F 80% 30.16 in 10.0 mi Calm Calm - N/A   Clear
4:53 AM 53.6 °F 48.2 °F 82% 30.16 in 10.0 mi Calm Calm - N/A   Clear
5:53 AM 52.0 °F 48.9 °F 89% 30.17 in 10.0 mi Calm Calm - N/A   Clear
6:53 AM 52.0 °F 48.9 °F 89% 30.18 in 10.0 mi Calm Calm - N/A   Clear
7:53 AM 59.0 °F 53.6 °F 82% 30.18 in 10.0 mi Calm Calm - N/A   Clear
8:53 AM 66.0 °F 51.1 °F 59% 30.17 in 10.0 mi South 3.5 mph - N/A   Clear
9:53 AM 71.1 °F 51.1 °F 49% 30.17 in 10.0 mi South 6.9 mph - N/A   Clear
10:53 AM 73.4 °F 50.0 °F 44% 30.17 in 10.0 mi South 6.9 mph - N/A   Clear
11:53 AM 77.0 °F 50.0 °F 39% 30.16 in 10.0 mi South 9.2 mph - N/A   Clear
12:53 PM 78.1 °F 48.0 °F 35% 30.14 in 10.0 mi SE 5.8 mph - N/A   Partly Cloudy
1:53 PM 79.0 °F 46.0 °F 31% 30.13 in 10.0 mi Variable 3.5 mph - N/A   Partly Cloudy
2:53 PM 80.1 °F 46.0 °F 30% 30.12 in 10.0 mi Variable 3.5 mph - N/A   Partly Cloudy
3:53 PM 80.1 °F 46.9 °F 31% 30.10 in 10.0 mi Calm Calm - N/A   Partly Cloudy
4:53 PM 81.0 °F 46.9 °F 30% 30.09 in 10.0 mi SSW 10.4 mph - N/A   Partly Cloudy
5:53 PM 81.0 °F 48.0 °F 31% 30.07 in 10.0 mi SW 5.8 mph - N/A   Clear
6:53 PM 81.0 °F 48.0 °F 31% 30.06 in 10.0 mi SSW 6.9 mph - N/A   Clear
7:53 PM 77.0 °F 54.0 °F 45% 30.05 in 10.0 mi North 5.8 mph - N/A   Clear
8:53 PM 73.0 °F 51.1 °F 46% 30.06 in 10.0 mi NNW 3.5 mph - N/A   Clear
9:53 PM 70.0 °F 51.1 °F 51% 30.06 in 10.0 mi Calm Calm - N/A   Clear
10:53 PM 64.0 °F 52.0 °F 65% 30.07 in 10.0 mi Calm Calm - N/A   Clear
11:53 PM 62.1 °F 53.1 °F 72% 30.07 in 10.0 mi Calm Calm - N/A   Clear